Terug naar catalogus

COSMOS 1823 DEB

ActiefLEO
NORAD 18804·DEBRIS·🇷🇺 Russia

Gelanceerd Feb 20, 1987 vanaf Plesetsk Cosmodrome

Loading…

Volgende Passages (komende 24 uur)

TLE

VersSource: Space-Track

Epoch: Sep 14, 2026, 02:17 UTC

1 18804U 87020AQ  26257.09534848 -.00000016  00000-0  83026-5 0  9993
2 18804  73.6010 279.7147 0026420 113.0934 276.6813 12.41509825754930

Volg COSMOS 1823 DEB in realtime met AllMySat

Download on the App Store